TimeCDT,TemperatureF,Dew PointF,Humidity,Sea Level PressureIn,VisibilityMPH,Wind Direction,Wind SpeedMPH,Gust SpeedMPH,PrecipitationIn,Events,Conditions,WindDirDegrees,DateUTC
12:12 AM,50.0,37.4,62,29.83,10.0,South,4.6,-,N/A,,Clear,180,2012-10-01 05:12:00
12:33 AM,50.0,37.4,62,29.83,10.0,South,3.5,-,N/A,,Clear,180,2012-10-01 05:33:00
12:53 AM,48.2,37.4,66,29.82,10.0,South,3.5,-,N/A,,Clear,170,2012-10-01 05:53:00
1:12 AM,50.0,37.4,62,29.82,10.0,South,3.5,-,N/A,,Clear,180,2012-10-01 06:12:00
1:33 AM,48.2,37.4,66,29.82,10.0,South,3.5,-,N/A,,Clear,190,2012-10-01 06:33:00
1:52 AM,48.2,39.2,71,29.82,10.0,SSW,4.6,-,N/A,,Clear,210,2012-10-01 06:52:00
2:13 AM,48.2,39.2,71,29.81,10.0,SSW,4.6,-,N/A,,Clear,210,2012-10-01 07:13:00
2:33 AM,50.0,39.2,66,29.81,10.0,SW,4.6,-,N/A,,Scattered Clouds,220,2012-10-01 07:33:00
2:52 AM,50.0,41.0,71,29.80,10.0,WSW,4.6,-,N/A,,Scattered Clouds,240,2012-10-01 07:52:00
3:13 AM,48.2,41.0,76,29.80,10.0,WSW,4.6,-,N/A,,Clear,240,2012-10-01 08:13:00
3:33 AM,50.0,42.8,76,29.80,10.0,SW,4.6,-,N/A,,Clear,230,2012-10-01 08:33:00
3:53 AM,48.2,42.8,82,29.80,10.0,WSW,6.9,-,N/A,,Clear,240,2012-10-01 08:53:00
4:13 AM,48.2,42.8,82,29.80,10.0,WSW,5.8,-,N/A,,Clear,240,2012-10-01 09:13:00
4:33 AM,48.2,42.8,82,29.80,10.0,WSW,3.5,-,N/A,,Clear,250,2012-10-01 09:33:00
4:53 AM,48.2,42.8,82,29.81,10.0,WSW,3.5,-,N/A,,Scattered Clouds,250,2012-10-01 09:53:00
5:13 AM,48.2,42.8,82,29.81,10.0,Calm,Calm,-,N/A,,Scattered Clouds,0,2012-10-01 10:13:00
5:33 AM,48.2,42.8,82,29.81,10.0,Calm,Calm,-,N/A,,Scattered Clouds,0,2012-10-01 10:33:00
5:53 AM,46.4,44.6,93,29.82,10.0,Calm,Calm,-,N/A,,Clear,0,2012-10-01 10:53:00
6:13 AM,46.4,42.8,87,29.82,10.0,Calm,Calm,-,N/A,,Clear,0,2012-10-01 11:13:00
6:33 AM,44.6,42.8,93,29.82,10.0,West,3.5,-,N/A,,Clear,270,2012-10-01 11:33:00
6:53 AM,44.6,42.8,93,29.83,10.0,West,3.5,-,N/A,,Clear,260,2012-10-01 11:53:00
7:13 AM,44.6,42.8,93,29.83,10.0,West,5.8,-,N/A,,Clear,280,2012-10-01 12:13:00
7:33 AM,46.4,44.6,93,29.84,10.0,WNW,5.8,-,N/A,,Clear,290,2012-10-01 12:33:00
7:53 AM,48.2,46.4,93,29.85,10.0,WNW,6.9,-,N/A,,Clear,300,2012-10-01 12:53:00
8:13 AM,51.8,48.2,88,29.85,10.0,WNW,6.9,-,N/A,,Scattered Clouds,300,2012-10-01 13:13:00
8:33 AM,51.8,48.2,88,29.85,10.0,NW,8.1,-,N/A,,Clear,310,2012-10-01 13:33:00
8:53 AM,53.6,48.2,82,29.85,10.0,NW,5.8,-,N/A,,Clear,320,2012-10-01 13:53:00
9:13 AM,55.4,48.2,77,29.86,10.0,NW,5.8,-,N/A,,Scattered Clouds,320,2012-10-01 14:13:00
9:33 AM,55.4,48.2,77,29.86,10.0,NW,8.1,-,N/A,,Mostly Cloudy,320,2012-10-01 14:33:00
9:52 AM,55.4,48.2,77,29.87,10.0,NW,9.2,-,N/A,,Overcast,310,2012-10-01 14:52:00
10:13 AM,55.4,48.2,77,29.88,10.0,NW,10.4,19.6,N/A,,Overcast,310,2012-10-01 15:13:00
10:33 AM,55.4,48.2,77,29.88,10.0,NW,10.4,-,N/A,,Overcast,320,2012-10-01 15:33:00
10:52 AM,55.4,48.2,77,29.89,10.0,NW,9.2,17.3,N/A,,Overcast,310,2012-10-01 15:52:00
11:13 AM,55.4,48.2,77,29.88,10.0,NW,9.2,17.3,N/A,,Overcast,320,2012-10-01 16:13:00
11:32 AM,55.4,48.2,77,29.89,10.0,NW,11.5,17.3,N/A,,Overcast,320,2012-10-01 16:32:00
11:53 AM,57.2,48.2,72,29.89,10.0,NW,10.4,-,N/A,,Overcast,320,2012-10-01 16:53:00
12:13 PM,57.2,48.2,72,29.89,10.0,NNW,6.9,17.3,N/A,,Overcast,330,2012-10-01 17:13:00
12:33 PM,59.0,48.2,67,29.89,10.0,North,8.1,16.1,N/A,,Overcast,350,2012-10-01 17:33:00
12:52 PM,57.2,48.2,72,29.89,10.0,NNW,9.2,16.1,N/A,,Overcast,340,2012-10-01 17:52:00
1:13 PM,60.8,48.2,63,29.88,10.0,NW,6.9,16.1,N/A,,Mostly Cloudy,320,2012-10-01 18:13:00
1:33 PM,62.6,48.2,59,29.88,10.0,NW,12.7,18.4,N/A,,Scattered Clouds,320,2012-10-01 18:33:00
1:52 PM,62.6,46.4,55,29.88,10.0,NNW,10.4,17.3,N/A,,Mostly Cloudy,330,2012-10-01 18:52:00
2:13 PM,62.6,44.6,52,29.88,10.0,NW,12.7,18.4,N/A,,Mostly Cloudy,310,2012-10-01 19:13:00
2:32 PM,62.6,44.6,52,29.88,10.0,NNW,8.1,17.3,N/A,,Scattered Clouds,340,2012-10-01 19:32:00
2:53 PM,62.6,42.8,48,29.88,10.0,NNW,11.5,18.4,N/A,,Scattered Clouds,330,2012-10-01 19:53:00
3:13 PM,62.6,41.0,45,29.88,10.0,NNW,11.5,19.6,N/A,,Scattered Clouds,340,2012-10-01 20:13:00
3:32 PM,64.4,39.2,40,29.88,10.0,NNW,8.1,16.1,N/A,,Scattered Clouds,330,2012-10-01 20:32:00
3:53 PM,64.4,37.4,37,29.88,10.0,NNW,10.4,21.9,N/A,,Clear,330,2012-10-01 20:53:00
4:13 PM,62.6,39.2,42,29.89,10.0,NW,12.7,20.7,N/A,,Clear,310,2012-10-01 21:13:00
4:33 PM,64.4,37.4,37,29.89,10.0,NNW,10.4,-,N/A,,Clear,330,2012-10-01 21:33:00
4:53 PM,62.6,37.4,39,29.89,10.0,NW,13.8,19.6,N/A,,Clear,320,2012-10-01 21:53:00
5:12 PM,62.6,35.6,37,29.90,10.0,NW,10.4,20.7,N/A,,Clear,320,2012-10-01 22:12:00
5:33 PM,62.6,35.6,37,29.90,10.0,NNW,8.1,-,N/A,,Clear,330,2012-10-01 22:33:00
5:53 PM,60.8,35.6,39,29.91,10.0,NW,6.9,-,N/A,,Clear,310,2012-10-01 22:53:00
6:13 PM,60.8,35.6,39,29.91,10.0,NNW,6.9,-,N/A,,Clear,330,2012-10-01 23:13:00
6:33 PM,59.0,35.6,42,29.92,10.0,NW,6.9,-,N/A,,Clear,310,2012-10-01 23:33:00
6:52 PM,57.2,35.6,44,29.93,10.0,NW,5.8,-,N/A,,Clear,310,2012-10-01 23:52:00
7:13 PM,55.4,35.6,47,29.93,10.0,NW,3.5,-,N/A,,Clear,310,2012-10-02 00:13:00
7:33 PM,53.6,37.4,54,29.93,10.0,WNW,3.5,-,N/A,,Clear,300,2012-10-02 00:33:00
7:52 PM,51.8,37.4,58,29.94,10.0,NW,3.5,-,N/A,,Clear,310,2012-10-02 00:52:00
8:13 PM,48.2,37.4,66,29.94,10.0,Calm,Calm,-,N/A,,Clear,0,2012-10-02 01:13:00
8:33 PM,44.6,37.4,76,29.94,10.0,Calm,Calm,-,N/A,,Clear,0,2012-10-02 01:33:00
8:53 PM,44.6,37.4,76,29.95,10.0,Calm,Calm,-,N/A,,Clear,0,2012-10-02 01:53:00
9:13 PM,42.8,35.6,76,29.95,10.0,Calm,Calm,-,N/A,,Clear,0,2012-10-02 02:13:00
9:32 PM,42.8,35.6,76,29.95,10.0,Calm,Calm,-,N/A,,Clear,0,2012-10-02 02:32:00
9:53 PM,41.0,35.6,81,29.95,10.0,Calm,Calm,-,N/A,,Clear,0,2012-10-02 02:53:00
10:13 PM,39.2,35.6,87,29.95,10.0,Calm,Calm,-,N/A,,Clear,0,2012-10-02 03:13:00
10:33 PM,39.2,35.6,87,29.95,10.0,Calm,Calm,-,N/A,,Clear,0,2012-10-02 03:33:00
10:53 PM,37.4,33.8,87,29.95,10.0,Calm,Calm,-,N/A,,Clear,0,2012-10-02 03:53:00
11:12 PM,35.6,33.8,93,29.95,10.0,Calm,Calm,-,N/A,,Clear,0,2012-10-02 04:12:00
11:33 PM,35.6,33.8,93,29.95,10.0,Calm,Calm,-,N/A,,Clear,0,2012-10-02 04:33:00
11:53 PM,35.6,32.0,87,29.96,10.0,Calm,Calm,-,N/A,,Clear,0,2012-10-02 04:53:00